Regional Weather Roundup
Issued by NWS

Home | Current Version | Previous Version | Graphics & Text | Print | Product List | Glossary On
Versions: 1 2 3 4 5 6 7 8 9 10 11 12 13 14 15 16 17 18 19 20 21 22 23 24 25 26 27 28 29 30 31 32 33 34 35 36 37 38 39 40 41 42 43 44 45 46 47 48 49 50
000
ASUS43 KDMX 042307
RWRIA

WEATHER ROUNDUP FOR IOWA
NATIONAL WEATHER SERVICE DES MOINES IA
500 PM CST WED MAR 04 2015

NOTE: "FAIR" INDICATES FEW OR NO CLOUDS BELOW 12,000 FEET WITH NO
SIGNIFICANT WEATHER AND/OR OBSTRUCTIONS TO VISIBILITY.

* - THESE STATIONS ARE NOT NWS STATIONS...THUS NOT UNDER NWS
QUALITY CONTROL.  THEY ALSO DO NOT REPORT WEATHER SUCH
AS PRECIPITATION OR FOG.

IAZ001>003-012>014-020>022-031>034-043>046-050000-
   NORTHWEST IOWA

CITY           SKY/WX    TMP DP  RH WIND       PRES   REMARKS
CARROLL *      PTSUNNY   18   3  53 NW18G25   30.29S WCI   2
CHEROKEE *     SUNNY     14  -2  48 NW15G22   30.32R WCI  -1
DENISON *      SUNNY     18  -2  41 NW20G29   30.28S WCI   1
LE MARS *      SUNNY     14  -2  48 NW18G25   30.34S WCI  -3
ORANGE CITY *  SUNNY     12  -4  48 NW17G28   30.31R WCI  -5
SHELDON *      PTSUNNY   10  -2  56 NW24      30.30R WCI -10
SIOUX CITY     SUNNY     20  -2  38 NW23G31   30.32R WCI   3
STORM LAKE *   MOSUNNY   14  -2  48 NW21      30.28S WCI  -4
$$

IAZ055>058-069>071-079>083-090>094-050000-
   SOUTHWEST IOWA

CITY           SKY/WX    TMP DP  RH WIND       PRES   REMARKS
ATLANTIC *     SUNNY     23   0  36 N21       30.28S WCI   8
AUDUBON *      SUNNY     19  -2  38 NW15G25   30.30R WCI   5
CLARINDA *     SUNNY     28   0  29 N21G29    30.28F WCI  15
COUNCIL BLFS * SUNNY     25  -2  30 N17G26    30.26F WCI  11
CRESTON *      SUNNY     25   1  36 N21       30.24F WCI  10
HARLAN  *      SUNNY     21   0  39 NW21      30.33R WCI   6
RED OAK *      SUNNY     27  -2  28 N20G26    30.27F WCI  13
SHENANDOAH *   SUNNY     28  -2  26 N15G24    30.29F WCI  17
$$

IAZ047>049-059>061-072>074-084-050000-
   CENTRAL IOWA

CITY           SKY/WX    TMP DP  RH WIND       PRES   REMARKS
ANKENY *       MOSUNNY   23   3  42 NW21G28   30.27S WCI   8
CHARITON *     PTSUNNY   28   7  40 NW17      30.24R WCI  16
GRINNELL*      LGT SNOW  21  14  73 W9        30.25R WCI  11
KNOXVILLE *    PTSUNNY   27   9  46 NW20G26   30.24S WCI  13
MARSHALLTOWN   LGT SNOW  16  10  79 NE10      30.24R WCI   3
PELLA *        MOSUNNY   25  16  68 N8        30.27R WCI  16
PERRY *          N/A     21   5  49 NW14      30.30R WCI   8
$$

IAZ004>006-015-016-023>025-035-036-050000-
   NORTH CENTRAL IOWA

CITY           SKY/WX    TMP DP  RH WIND       PRES   REMARKS
ALGONA *       PTSUNNY   14 N/A N/A NW17G23   30.28R WCI  -3
CLARION *      FLURRIES  14   9  79 N13G22    30.27R WCI   0
FOREST CITY *  MOSUNNY   14   3  62 NW15      30.26R WCI  -1
IOWA FALLS *   LGT SNOW  16   7  67 N9        30.27R WCI   4
$$

IAZ007>011-017>019-026>030-037>042-050>054-066-050000-
   NORTHEAST IOWA

CITY           SKY/WX    TMP DP  RH WIND       PRES   REMARKS
CHARLES CITY * CLOUDY    12   3  67 NW14      30.26R WCI  -3
DECORAH *      CLOUDY    12   0  57 NW12G21   30.22S WCI  -2
MONTICELLO *   CLEAR     14   0  52 NW13      30.27S WCI   0
OELWEIN *      MOSUNNY   12   1  62 NW9       30.27R WCI   0
$$

IAZ064-065-067-068-078-050000-
   EAST CENTRAL IOWA

CITY           SKY/WX    TMP DP  RH WIND       PRES   REMARKS
MT. PLEASANT * SUNNY     21   5  49 N8        30.28S WCI  12
MUSCATINE *    CLEAR     19   1  45 NW13      30.30S WCI   7
$$

IAZ062-063-075>077-085>089-095>099-050000-
   SOUTHEAST IOWA

CITY           SKY/WX    TMP DP  RH WIND       PRES   REMARKS
FAIRFIELD *    SUNNY     23   5  46 N6        30.27F WCI  16
FORT MADISON * SUNNY     19   7  58 N8        30.29S WCI   9
KEOKUK *       SUNNY     21   3  45 NW6       30.28S WCI  14
OSKALOOSA *      N/A     25   9  50 NW9       30.26R WCI  15
CENTERVILLE *  SUNNY     25   7  46 NW8       30.27S WCI  16
WASHINGTON *   SUNNY     21   9  58 N8        30.27S WCI  12
$$

ABBREVIATIONS USED IN REMARKS
   TC - TEMPERATURES IN CELSIUS
  WCI - WIND CHILL INDEX
   HX - HEAT INDEX
  VSB - VISIBILITY
$$




USA.gov is the U.S. government's official web portal to all federal, state and local government web resources and services.